Regional Weather Roundup
Issued by NWS Burlington, VT

Home | Current Version | Previous Version | Text Only | Print | Product List | Glossary On
Versions: 1 2 3 4 5 6 7 8 9 10 11 12 13 14 15 16 17 18 19 20 21 22 23 24 25 26 27 28 29 30 31 32 33 34 35 36 37 38 39 40 41 42 43 44 45 46 47 48 49 50
000
ASUS41 KBTV 211610
RWRBTV
VERMONT REGIONAL WEATHER ROUNDUP
NATIONAL WEATHER SERVICE BURLINGTON VT
1100 AM EST SUN DEC 21 2014

NOTE: "FAIR" INDICATES FEW OR NO CLOUDS BELOW 12,000 FEET WITH NO
SIGNIFICANT WEATHER AND/OR OBSTRUCTIONS TO VISIBILITY.

* THESE REPORTS ARE NOT UNDER NWS QUALITY CONTROL AND/OR DO NOT
  REPORT WEATHER SUCH AS PRECIPITATION AND FOG.

VTZ001>019-211700-
_____VERMONT_____


CITY           SKY/WX    TMP DP  RH WIND       PRES   REMARKS
BURLINGTON     CLOUDY    23  18  81 CALM      30.36S
MONTPELIER     LGT SNOW  20  17  88 CALM      30.33F FOG
MORRISVILLE    CLOUDY    18  15  88 CALM      30.34F
ST. JOHNSBURY*   N/A     20  15  81 MISG      30.32F
LYNDONVILLE*   CLOUDY    20  17  88 CALM      30.30F
MIDDLEBURY*    LGT SNOW  23  22  94 CALM      30.35S
RUTLAND*       CLOUDY    23  19  86 N3        30.32S
SPRINGFIELD    LGT SNOW  26  24  92 CALM      30.33F FOG
HIGHGATE*      CLOUDY    19  17  93 CALM      30.37F FOG
NEWPORT*       CLOUDY    10   7  89 CALM      30.32F FOG
BENNINGTON     CLOUDY    27  23  85 CALM      30.30F FOG

_____LAKE CHAMPLAIN_____


CITY           SKY/WX    TMP DP  RH WIND       PRES   REMARKS
COLCHESTER RF*   N/A     25  25 100 N3          N/A

$$

NYZ007-026>031-035-052-083-211700-
_____NORTHERN NEW YORK_____


CITY           SKY/WX    TMP DP  RH WIND       PRES   REMARKS
PLATTSBURGH    CLOUDY    20  18  92 CALM      30.37F FOG
SARANAC LAKE   CLOUDY    20  18  92 CALM      30.24S
MASSENA        CLOUDY    18  15  88 E6        30.39S FOG
OGDENSBURG*    PTSUNNY   21  18  86 E3        30.36F
POTSDAM*       CLOUDY    18  16  93 CALM      30.35F FOG
WATERTOWN      CLOUDY    30  22  72 NE3       30.33F
FT DRUM        CLOUDY    28  19  67 SE2       30.31F
ALBANY         FLURRIES  29  23  78 N5        30.36S
GLENS FALLS    CLOUDY    25  22  88 CALM      30.36S FOG

$$
NHZ002-005-011-211700-
_____NEW HAMPSHIRE_____


CITY           SKY/WX    TMP DP  RH WIND       PRES   REMARKS
LEBANON        LGT SNOW  26  21  81 CALM      30.32F
KEENE          CLOUDY    30  28  93 N3        30.32S
MT WASHINGTON  SNOW      14  14 100 W22         N/A  VSB 1/8 WCI  -4
PLYMOUTH       LGT SNOW  28  26  93 CALM      30.33F
WHITEFIELD     CLOUDY    22  18  85 CALM      30.30F

$$

_____REGIONAL QUEBEC LOCATIONS_____


CITY           SKY/WX    TMP DP  RH WIND       PRES   REMARKS
QUEBEC CITY    LGT SNOW  16  12  86 NE5       30.39F
SHERBROOKE     FLURRIES  12  10  92 CALM      30.33F

_____REGIONAL ONTARIO LOCATIONS_____


CITY           SKY/WX    TMP DP  RH WIND       PRES   REMARKS

______KEY______
VSB  - VISIBILITY IN MILES
WCI  - WIND CHILL INDEX
HX   - HEAT INDEX
$$
NNNN


USA.gov is the U.S. government's official web portal to all federal, state and local government web resources and services.